Time,TemperatureF,DewpointF,PressureIn,WindDirection,WindDirectionDegrees,WindSpeedMPH,WindSpeedGustMPH,Humidity,HourlyPrecipIn,Conditions,Clouds,dailyrainin,SoftwareType,DateUTC
2013-08-20 00:01:00,64.2,59.3,30.04,WSW,248,0.0,0.4,84,0.00,,,0.00,WUHU216HW,2013-08-20 04:01:00,
2013-08-20 00:02:00,64.2,59.3,30.04,WSW,248,0.0,0.4,84,0.00,,,0.00,WUHU216HW,2013-08-20 04:02:00,
2013-08-20 00:07:00,64.2,59.3,30.04,WSW,248,0.0,0.2,84,0.00,,,0.00,WUHU216HW,2013-08-20 04:07:00,
2013-08-20 00:12:00,64.2,59.3,30.04,WSW,248,0.0,0.2,84,0.00,,,0.00,WUHU216HW,2013-08-20 04:12:00,
2013-08-20 00:17:00,64.1,59.2,30.04,SE,135,0.0,0.0,84,0.00,,,0.00,WUHU216HW,2013-08-20 04:17:00,
2013-08-20 00:22:00,64.1,59.2,30.04,SW,225,0.4,0.4,84,0.00,,,0.00,WUHU216HW,2013-08-20 04:22:00,
2013-08-20 00:28:00,63.9,59.0,30.04,WSW,248,0.0,0.4,84,0.00,,,0.00,WUHU216HW,2013-08-20 04:28:00,
2013-08-20 00:33:00,63.9,59.0,30.04,WSW,248,0.0,0.9,84,0.00,,,0.00,WUHU216HW,2013-08-20 04:33:00,
2013-08-20 00:38:00,63.9,59.0,30.04,WSW,248,0.0,0.9,84,0.00,,,0.00,WUHU216HW,2013-08-20 04:38:00,
2013-08-20 00:43:00,63.9,59.0,30.04,WNW,293,0.0,0.4,84,0.00,,,0.00,WUHU216HW,2013-08-20 04:43:00,
2013-08-20 00:48:00,63.9,59.3,30.04,SW,225,0.0,0.4,85,0.00,,,0.00,WUHU216HW,2013-08-20 04:48:00,
2013-08-20 00:53:00,63.7,59.1,30.04,SSE,158,0.0,0.4,85,0.00,,,0.00,WUHU216HW,2013-08-20 04:53:00,
2013-08-20 00:58:00,63.7,59.1,30.04,SSE,158,0.0,0.4,85,0.00,,,0.00,WUHU216HW,2013-08-20 04:58:00,
2013-08-20 01:03:00,63.5,58.9,30.04,SSE,158,0.0,0.0,85,0.00,,,0.00,WUHU216HW,2013-08-20 05:03:00,
2013-08-20 01:08:00,63.5,58.9,30.03,SE,135,0.0,0.0,85,0.00,,,0.00,WUHU216HW,2013-08-20 05:08:00,
2013-08-20 01:13:00,63.5,58.9,30.04,SSE,158,0.0,0.0,85,0.00,,,0.00,WUHU216HW,2013-08-20 05:13:00,
2013-08-20 01:18:00,63.5,58.9,30.03,SSE,158,0.0,0.0,85,0.00,,,0.00,WUHU216HW,2013-08-20 05:18:00,
2013-08-20 01:24:00,63.3,58.7,30.03,West,270,0.0,0.4,85,0.00,,,0.00,WUHU216HW,2013-08-20 05:24:00,
2013-08-20 01:29:00,63.3,58.7,30.04,WSW,248,0.2,0.9,85,0.00,,,0.00,WUHU216HW,2013-08-20 05:29:00,
2013-08-20 01:34:00,63.2,58.9,30.03,West,270,0.0,0.9,86,0.00,,,0.00,WUHU216HW,2013-08-20 05:34:00,
2013-08-20 01:39:00,63.2,58.9,30.03,West,270,0.0,0.4,86,0.00,,,0.00,WUHU216HW,2013-08-20 05:39:00,
2013-08-20 01:44:00,63.2,58.9,30.04,West,270,0.0,0.0,86,0.00,,,0.00,WUHU216HW,2013-08-20 05:44:00,
2013-08-20 01:49:00,63.0,58.7,30.03,ESE,113,0.2,0.7,86,0.00,,,0.00,WUHU216HW,2013-08-20 05:49:00,
2013-08-20 01:54:00,63.0,58.7,30.03,ESE,113,0.0,0.7,86,0.00,,,0.00,WUHU216HW,2013-08-20 05:54:00,
2013-08-20 01:59:00,62.8,58.6,30.03,ESE,113,0.0,0.4,86,0.00,,,0.00,WUHU216HW,2013-08-20 05:59:00,
2013-08-20 02:04:00,62.8,58.2,30.03,ESE,113,0.0,0.0,85,0.00,,,0.00,WUHU216HW,2013-08-20 06:04:00,
2013-08-20 02:09:00,62.8,58.2,30.03,ESE,113,0.0,0.0,85,0.00,,,0.00,WUHU216HW,2013-08-20 06:09:00,
2013-08-20 02:14:00,62.6,58.0,30.04,ESE,113,0.0,0.0,85,0.00,,,0.00,WUHU216HW,2013-08-20 06:14:00,
2013-08-20 02:19:00,62.6,58.0,30.04,ESE,113,0.0,0.0,85,0.00,,,0.00,WUHU216HW,2013-08-20 06:19:00,
2013-08-20 02:25:00,62.4,57.8,30.04,ESE,113,0.0,0.0,85,0.00,,,0.00,WUHU216HW,2013-08-20 06:25:00,
2013-08-20 02:30:00,62.4,57.8,30.04,ESE,113,0.0,0.0,85,0.00,,,0.00,WUHU216HW,2013-08-20 06:30:00,
2013-08-20 02:35:00,62.4,57.8,30.04,ESE,113,0.0,0.4,85,0.00,,,0.00,WUHU216HW,2013-08-20 06:35:00,
2013-08-20 02:40:00,62.4,57.8,30.04,ESE,113,0.0,0.4,85,0.00,,,0.00,WUHU216HW,2013-08-20 06:40:00,
2013-08-20 02:45:00,62.3,57.7,30.04,ESE,113,0.0,0.0,85,0.00,,,0.00,WUHU216HW,2013-08-20 06:45:00,
2013-08-20 02:50:00,62.3,57.7,30.04,ESE,113,0.0,0.0,85,0.00,,,0.00,WUHU216HW,2013-08-20 06:50:00,
2013-08-20 02:55:00,62.1,57.5,30.04,ESE,113,0.0,0.0,85,0.00,,,0.00,WUHU216HW,2013-08-20 06:55:00,
2013-08-20 03:00:00,62.1,57.5,30.03,ESE,113,0.0,0.0,85,0.00,,,0.00,WUHU216HW,2013-08-20 07:00:00,
2013-08-20 03:05:00,61.9,57.4,30.03,ESE,113,0.0,0.0,85,0.00,,,0.00,WUHU216HW,2013-08-20 07:05:00,
2013-08-20 03:10:00,61.9,57.4,30.04,ESE,113,0.0,0.0,85,0.00,,,0.00,WUHU216HW,2013-08-20 07:10:00,
2013-08-20 03:15:00,61.7,57.5,30.04,ESE,113,0.0,0.0,86,0.00,,,0.00,WUHU216HW,2013-08-20 07:15:00,
2013-08-20 03:20:00,61.7,57.5,30.04,ESE,113,0.0,0.0,86,0.00,,,0.00,WUHU216HW,2013-08-20 07:20:00,
2013-08-20 03:26:00,61.7,57.5,30.04,ESE,113,0.0,0.0,86,0.00,,,0.00,WUHU216HW,2013-08-20 07:26:00,
2013-08-20 03:31:00,61.7,57.5,30.03,ESE,113,0.0,0.0,86,0.00,,,0.00,WUHU216HW,2013-08-20 07:31:00,
2013-08-20 03:36:00,61.5,57.3,30.04,ESE,113,0.0,0.0,86,0.00,,,0.00,WUHU216HW,2013-08-20 07:36:00,
2013-08-20 03:41:00,61.5,57.3,30.04,ESE,113,0.0,0.0,86,0.00,,,0.00,WUHU216HW,2013-08-20 07:41:00,
2013-08-20 03:46:00,61.5,57.3,30.04,ESE,113,0.0,0.0,86,0.00,,,0.00,WUHU216HW,2013-08-20 07:46:00,
2013-08-20 03:51:00,61.4,57.2,30.04,ESE,113,0.0,0.0,86,0.00,,,0.00,WUHU216HW,2013-08-20 07:51:00,
2013-08-20 03:56:00,61.4,57.2,30.04,ESE,113,0.0,0.0,86,0.00,,,0.00,WUHU216HW,2013-08-20 07:56:00,
2013-08-20 04:01:00,61.4,57.2,30.04,ESE,113,0.0,0.0,86,0.00,,,0.00,WUHU216HW,2013-08-20 08:01:00,
2013-08-20 04:06:00,61.4,57.2,30.04,ESE,113,0.0,0.0,86,0.00,,,0.00,WUHU216HW,2013-08-20 08:06:00,
2013-08-20 04:11:00,61.2,57.0,30.04,ESE,113,0.0,0.0,86,0.00,,,0.00,WUHU216HW,2013-08-20 08:11:00,
2013-08-20 04:16:00,61.2,57.3,30.04,ESE,113,0.0,0.0,87,0.00,,,0.00,WUHU216HW,2013-08-20 08:16:00,
2013-08-20 04:22:00,61.2,57.3,30.04,ESE,113,0.0,0.0,87,0.00,,,0.00,WUHU216HW,2013-08-20 08:22:00,
2013-08-20 04:27:00,61.0,57.1,30.04,ESE,113,0.0,0.0,87,0.00,,,0.00,WUHU216HW,2013-08-20 08:27:00,
2013-08-20 04:32:00,61.0,57.1,30.04,ESE,113,0.0,0.0,87,0.00,,,0.00,WUHU216HW,2013-08-20 08:32:00,
2013-08-20 04:37:00,61.0,57.1,30.04,ESE,113,0.0,0.0,87,0.00,,,0.00,WUHU216HW,2013-08-20 08:37:00,
2013-08-20 04:42:00,61.0,57.1,30.04,ESE,113,0.0,0.0,87,0.00,,,0.00,WUHU216HW,2013-08-20 08:42:00,
2013-08-20 04:47:00,60.8,56.9,30.04,ESE,113,0.0,0.0,87,0.00,,,0.00,WUHU216HW,2013-08-20 08:47:00,
2013-08-20 04:52:00,60.8,56.9,30.04,SE,135,0.0,0.0,87,0.00,,,0.00,WUHU216HW,2013-08-20 08:52:00,
2013-08-20 04:57:00,60.6,56.7,30.04,SE,135,0.0,0.0,87,0.00,,,0.00,WUHU216HW,2013-08-20 08:57:00,
2013-08-20 05:02:00,60.6,56.7,30.04,SE,135,0.0,0.0,87,0.00,,,0.00,WUHU216HW,2013-08-20 09:02:00,
2013-08-20 05:07:00,60.5,56.6,30.04,SE,135,0.0,0.0,87,0.00,,,0.00,WUHU216HW,2013-08-20 09:07:00,
2013-08-20 05:12:00,60.5,56.6,30.05,SE,135,0.0,0.0,87,0.00,,,0.00,WUHU216HW,2013-08-20 09:12:00,
2013-08-20 05:17:00,60.3,56.4,30.05,SE,135,0.0,0.0,87,0.00,,,0.00,WUHU216HW,2013-08-20 09:17:00,
2013-08-20 05:23:00,60.3,56.4,30.05,SE,135,0.0,0.0,87,0.00,,,0.00,WUHU216HW,2013-08-20 09:23:00,
2013-08-20 05:28:00,60.3,56.4,30.05,SE,135,0.0,0.0,87,0.00,,,0.00,WUHU216HW,2013-08-20 09:28:00,
2013-08-20 05:33:00,60.3,56.4,30.05,SE,135,0.0,0.0,87,0.00,,,0.00,WUHU216HW,2013-08-20 09:33:00,
2013-08-20 05:38:00,60.1,56.2,30.05,SE,135,0.0,0.0,87,0.00,,,0.00,WUHU216HW,2013-08-20 09:38:00,
2013-08-20 05:43:00,60.1,56.2,30.05,WSW,248,0.4,0.4,87,0.00,,,0.00,WUHU216HW,2013-08-20 09:43:00,
2013-08-20 05:48:00,59.9,56.0,30.05,West,270,0.0,0.4,87,0.00,,,0.00,WUHU216HW,2013-08-20 09:48:00,
2013-08-20 05:53:00,59.9,56.0,30.05,West,270,0.0,0.4,87,0.00,,,0.00,WUHU216HW,2013-08-20 09:53:00,
2013-08-20 05:58:00,59.7,55.8,30.05,West,270,0.0,0.0,87,0.00,,,0.00,WUHU216HW,2013-08-20 09:58:00,
2013-08-20 06:03:00,59.7,55.8,30.05,West,270,0.0,0.0,87,0.00,,,0.00,WUHU216HW,2013-08-20 10:03:00,
2013-08-20 06:08:00,59.6,55.7,30.06,West,270,0.0,0.0,87,0.00,,,0.00,WUHU216HW,2013-08-20 10:08:00,
2013-08-20 06:13:00,59.6,55.7,30.06,West,270,0.0,0.0,87,0.00,,,0.00,WUHU216HW,2013-08-20 10:13:00,
2013-08-20 06:18:00,59.6,55.7,30.06,West,270,0.0,0.0,87,0.00,,,0.00,WUHU216HW,2013-08-20 10:18:00,
2013-08-20 06:24:00,59.2,55.3,30.06,West,270,0.0,0.0,87,0.00,,,0.00,WUHU216HW,2013-08-20 10:24:00,
2013-08-20 06:29:00,59.2,55.3,30.07,West,270,0.0,0.0,87,0.00,,,0.00,WUHU216HW,2013-08-20 10:29:00,
2013-08-20 06:34:00,59.2,55.3,30.07,West,270,0.0,0.0,87,0.00,,,0.00,WUHU216HW,2013-08-20 10:34:00,
2013-08-20 06:39:00,59.2,55.3,30.07,West,270,0.0,0.0,87,0.00,,,0.00,WUHU216HW,2013-08-20 10:39:00,
2013-08-20 06:44:00,59.2,55.3,30.07,West,270,0.0,0.0,87,0.00,,,0.00,WUHU216HW,2013-08-20 10:44:00,
2013-08-20 06:49:00,59.2,55.3,30.07,West,270,0.0,0.0,87,0.00,,,0.00,WUHU216HW,2013-08-20 10:49:00,
2013-08-20 06:54:00,59.2,55.6,30.07,West,270,0.0,0.0,88,0.00,,,0.00,WUHU216HW,2013-08-20 10:54:00,
2013-08-20 06:59:00,59.2,55.6,30.08,West,270,0.0,0.0,88,0.00,,,0.00,WUHU216HW,2013-08-20 10:59:00,
2013-08-20 07:04:00,59.2,55.6,30.08,West,270,0.0,0.0,88,0.00,,,0.00,WUHU216HW,2013-08-20 11:04:00,
2013-08-20 07:09:00,59.2,55.6,30.08,West,270,0.0,0.0,88,0.00,,,0.00,WUHU216HW,2013-08-20 11:09:00,
2013-08-20 07:14:00,59.6,56.0,30.08,West,270,0.0,0.0,88,0.00,,,0.00,WUHU216HW,2013-08-20 11:14:00,
2013-08-20 07:20:00,59.6,56.0,30.08,West,270,0.0,0.0,88,0.00,,,0.00,WUHU216HW,2013-08-20 11:20:00,
2013-08-20 07:25:00,59.6,56.0,30.08,West,270,0.0,0.0,88,0.00,,,0.00,WUHU216HW,2013-08-20 11:25:00,
2013-08-20 07:30:00,59.7,56.1,30.08,West,270,0.0,0.0,88,0.00,,,0.00,WUHU216HW,2013-08-20 11:30:00,
2013-08-20 07:35:00,59.9,56.3,30.08,West,270,0.0,0.0,88,0.00,,,0.00,WUHU216HW,2013-08-20 11:35:00,
2013-08-20 07:40:00,60.1,56.5,30.08,West,270,0.0,0.0,88,0.00,,,0.00,WUHU216HW,2013-08-20 11:40:00,
2013-08-20 07:45:00,60.3,56.7,30.09,West,270,0.0,0.2,88,0.00,,,0.00,WUHU216HW,2013-08-20 11:45:00,
2013-08-20 07:50:00,60.5,56.9,30.09,West,270,0.2,0.2,88,0.00,,,0.00,WUHU216HW,2013-08-20 11:50:00,
2013-08-20 07:55:00,60.8,57.2,30.09,SW,225,0.2,0.7,88,0.00,,,0.00,WUHU216HW,2013-08-20 11:55:00,
2013-08-20 08:00:00,61.0,57.4,30.09,SW,225,0.0,0.7,88,0.00,,,0.00,WUHU216HW,2013-08-20 12:00:00,
2013-08-20 08:05:00,61.2,57.6,30.09,SW,225,0.7,0.7,88,0.00,,,0.00,WUHU216HW,2013-08-20 12:05:00,
2013-08-20 08:10:00,61.4,57.8,30.09,SW,225,0.0,0.7,88,0.00,,,0.00,WUHU216HW,2013-08-20 12:10:00,
2013-08-20 08:15:00,61.7,58.1,30.10,West,270,0.4,1.1,88,0.00,,,0.00,WUHU216HW,2013-08-20 12:15:00,
2013-08-20 08:21:00,61.7,58.1,30.09,West,270,0.0,1.1,88,0.00,,,0.00,WUHU216HW,2013-08-20 12:21:00,
2013-08-20 08:26:00,62.3,58.7,30.10,SW,225,0.7,1.6,88,0.00,,,0.00,WUHU216HW,2013-08-20 12:26:00,
2013-08-20 08:31:00,62.4,59.1,30.10,WSW,248,0.7,1.6,89,0.00,,,0.00,WUHU216HW,2013-08-20 12:31:00,
2013-08-20 08:36:00,62.8,59.5,30.10,WNW,293,0.2,1.8,89,0.00,,,0.00,WUHU216HW,2013-08-20 12:36:00,
2013-08-20 08:41:00,63.2,59.6,30.10,West,270,0.4,1.8,88,0.00,,,0.00,WUHU216HW,2013-08-20 12:41:00,
2013-08-20 08:46:00,63.2,59.6,30.10,SW,225,0.2,1.8,88,0.00,,,0.00,WUHU216HW,2013-08-20 12:46:00,
2013-08-20 08:51:00,63.5,59.9,30.10,NNE,23,0.2,0.9,88,0.00,,,0.00,WUHU216HW,2013-08-20 12:51:00,
2013-08-20 08:56:00,63.9,60.6,30.10,WSW,248,0.7,1.1,89,0.00,,,0.00,WUHU216HW,2013-08-20 12:56:00,
2013-08-20 09:01:00,64.2,60.9,30.10,WNW,293,0.7,1.8,89,0.00,,,0.00,WUHU216HW,2013-08-20 13:01:00,
2013-08-20 09:06:00,64.6,61.3,30.10,WNW,293,0.4,2.5,89,0.00,,,0.00,WUHU216HW,2013-08-20 13:06:00,
2013-08-20 09:11:00,65.0,61.7,30.10,NW,315,1.3,2.5,89,0.00,,,0.00,WUHU216HW,2013-08-20 13:11:00,
2013-08-20 09:17:00,65.3,61.6,30.10,WNW,293,0.9,3.6,88,0.00,,,0.00,WUHU216HW,2013-08-20 13:17:00,
2013-08-20 09:22:00,65.7,62.0,30.10,WNW,293,0.4,3.6,88,0.00,,,0.00,WUHU216HW,2013-08-20 13:22:00,
2013-08-20 09:27:00,66.0,62.3,30.10,WNW,293,1.1,2.5,88,0.00,,,0.00,WUHU216HW,2013-08-20 13:27:00,
2013-08-20 09:32:00,66.4,62.7,30.10,WNW,293,1.1,2.5,88,0.00,,,0.00,WUHU216HW,2013-08-20 13:32:00,
2013-08-20 09:37:00,66.6,62.6,30.10,West,270,2.7,3.1,87,0.00,,,0.00,WUHU216HW,2013-08-20 13:37:00,
2013-08-20 09:42:00,66.8,62.5,30.10,SSW,203,2.5,3.4,86,0.00,,,0.00,WUHU216HW,2013-08-20 13:42:00,
2013-08-20 09:47:00,67.1,62.8,30.10,West,270,1.8,3.4,86,0.00,,,0.00,WUHU216HW,2013-08-20 13:47:00,
2013-08-20 09:52:00,67.5,63.2,30.10,West,270,0.2,3.4,86,0.00,,,0.00,WUHU216HW,2013-08-20 13:52:00,
2013-08-20 09:57:00,67.7,63.0,30.10,NW,315,0.9,3.4,85,0.00,,,0.00,WUHU216HW,2013-08-20 13:57:00,
2013-08-20 10:02:00,68.0,63.0,30.10,West,270,2.0,2.0,84,0.00,,,0.00,WUHU216HW,2013-08-20 14:02:00,
2013-08-20 10:07:00,68.2,63.2,30.11,SW,225,0.4,2.0,84,0.00,,,0.00,WUHU216HW,2013-08-20 14:07:00,
2013-08-20 10:13:00,68.6,63.6,30.11,NNW,338,0.7,2.5,84,0.00,,,0.00,WUHU216HW,2013-08-20 14:13:00,
2013-08-20 10:18:00,68.9,63.6,30.11,West,270,2.5,3.4,83,0.00,,,0.00,WUHU216HW,2013-08-20 14:18:00,
2013-08-20 10:23:00,69.3,64.0,30.11,WSW,248,1.8,3.4,83,0.00,,,0.00,WUHU216HW,2013-08-20 14:23:00,
2013-08-20 10:28:00,69.5,64.2,30.11,WSW,248,1.1,2.5,83,0.00,,,0.00,WUHU216HW,2013-08-20 14:28:00,
2013-08-20 10:33:00,69.8,63.8,30.12,WSW,248,3.1,3.1,81,0.00,,,0.00,WUHU216HW,2013-08-20 14:33:00,
2013-08-20 10:38:00,70.2,64.2,30.12,WNW,293,1.3,3.4,81,0.00,,,0.00,WUHU216HW,2013-08-20 14:38:00,
2013-08-20 10:43:00,70.4,64.4,30.12,NNW,338,1.1,3.4,81,0.00,,,0.00,WUHU216HW,2013-08-20 14:43:00,
2013-08-20 10:48:00,70.7,64.3,30.12,North,0,2.0,2.7,80,0.00,,,0.00,WUHU216HW,2013-08-20 14:48:00,
2013-08-20 10:53:00,70.9,64.9,30.12,WNW,293,1.3,3.4,81,0.00,,,0.00,WUHU216HW,2013-08-20 14:53:00,
2013-08-20 10:58:00,71.1,64.7,30.12,NW,315,0.4,3.4,80,0.00,,,0.00,WUHU216HW,2013-08-20 14:58:00,
2013-08-20 11:03:00,71.4,65.0,30.11,NW,315,0.4,1.8,80,0.00,,,0.00,WUHU216HW,2013-08-20 15:03:00,
2013-08-20 11:09:00,71.8,65.0,30.12,West,270,1.8,4.0,79,0.00,,,0.00,WUHU216HW,2013-08-20 15:09:00,
2013-08-20 11:14:00,72.0,64.9,30.12,SW,225,0.9,4.0,78,0.00,,,0.00,WUHU216HW,2013-08-20 15:14:00,
2013-08-20 11:19:00,72.2,65.1,30.11,West,270,0.2,2.0,78,0.00,,,0.00,WUHU216HW,2013-08-20 15:19:00,
2013-08-20 11:24:00,72.5,65.4,30.11,SW,225,0.4,2.5,78,0.00,,,0.00,WUHU216HW,2013-08-20 15:24:00,
2013-08-20 11:29:00,72.7,65.2,30.11,NNW,338,1.6,2.5,77,0.00,,,0.00,WUHU216HW,2013-08-20 15:29:00,
2013-08-20 11:34:00,72.9,64.7,30.11,WSW,248,1.8,2.5,75,0.00,,,0.00,WUHU216HW,2013-08-20 15:34:00,
2013-08-20 11:39:00,73.1,64.9,30.11,WNW,293,1.3,2.9,75,0.00,,,0.00,WUHU216HW,2013-08-20 15:39:00,
2013-08-20 11:44:00,73.2,64.9,30.11,East,90,0.7,3.1,75,0.00,,,0.00,WUHU216HW,2013-08-20 15:44:00,
2013-08-20 11:49:00,73.4,64.0,30.10,WSW,248,0.4,3.1,72,0.00,,,0.00,WUHU216HW,2013-08-20 15:49:00,
2013-08-20 11:54:00,73.8,64.8,30.11,West,270,1.3,2.2,73,0.00,,,0.00,WUHU216HW,2013-08-20 15:54:00,
2013-08-20 11:59:00,74.0,64.6,30.10,West,270,1.8,2.7,72,0.00,,,0.00,WUHU216HW,2013-08-20 15:59:00,
2013-08-20 12:05:00,74.3,64.5,30.10,WSW,248,0.0,3.8,71,0.00,,,0.00,WUHU216HW,2013-08-20 16:05:00,
2013-08-20 12:10:00,74.7,64.9,30.10,WSW,248,1.6,3.8,71,0.00,,,0.00,WUHU216HW,2013-08-20 16:10:00,
2013-08-20 12:15:00,74.7,64.5,30.10,SW,225,1.8,2.9,70,0.00,,,0.00,WUHU216HW,2013-08-20 16:15:00,
2013-08-20 12:20:00,74.9,64.2,30.10,WNW,293,3.4,3.8,69,0.00,,,0.00,WUHU216HW,2013-08-20 16:20:00,
2013-08-20 12:25:00,75.0,63.5,30.10,West,270,5.1,5.1,67,0.00,,,0.00,WUHU216HW,2013-08-20 16:25:00,
2013-08-20 12:30:00,75.0,63.1,30.11,West,270,2.5,5.1,66,0.00,,,0.00,WUHU216HW,2013-08-20 16:30:00,
2013-08-20 12:35:00,75.4,64.3,30.11,SW,225,0.9,4.7,68,0.00,,,0.00,WUHU216HW,2013-08-20 16:35:00,
2013-08-20 12:40:00,75.4,63.9,30.10,West,270,2.0,4.5,67,0.00,,,0.00,WUHU216HW,2013-08-20 16:40:00,
2013-08-20 12:45:00,75.4,64.3,30.10,SSW,203,1.8,4.5,68,0.00,,,0.00,WUHU216HW,2013-08-20 16:45:00,
2013-08-20 12:50:00,75.6,64.5,30.10,NNW,338,0.9,3.8,68,0.00,,,0.00,WUHU216HW,2013-08-20 16:50:00,
2013-08-20 12:55:00,75.8,64.3,30.10,SSW,203,0.4,2.2,67,0.00,,,0.00,WUHU216HW,2013-08-20 16:55:00,
2013-08-20 13:01:00,75.9,63.9,30.10,SW,225,2.2,4.5,66,0.00,,,0.00,WUHU216HW,2013-08-20 17:01:00,
2013-08-20 13:06:00,76.1,63.7,30.10,SW,225,2.9,4.7,65,0.00,,,0.00,WUHU216HW,2013-08-20 17:06:00,
2013-08-20 13:11:00,76.3,63.9,30.09,West,270,2.7,4.7,65,0.00,,,0.00,WUHU216HW,2013-08-20 17:11:00,
2013-08-20 13:16:00,76.7,64.7,30.09,NNW,338,0.4,4.7,66,0.00,,,0.00,WUHU216HW,2013-08-20 17:16:00,
2013-08-20 13:21:00,76.8,64.8,30.09,West,270,0.4,3.4,66,0.00,,,0.00,WUHU216HW,2013-08-20 17:21:00,
2013-08-20 13:26:00,77.0,64.6,30.09,East,90,0.4,3.4,65,0.00,,,0.00,WUHU216HW,2013-08-20 17:26:00,
2013-08-20 13:31:00,77.4,64.9,30.09,WSW,248,1.8,5.4,65,0.00,,,0.00,WUHU216HW,2013-08-20 17:31:00,
2013-08-20 13:36:00,77.6,63.8,30.09,WSW,248,5.1,5.4,62,0.00,,,0.00,WUHU216HW,2013-08-20 17:36:00,
2013-08-20 13:41:00,77.7,64.3,30.09,SE,135,1.3,6.0,63,0.00,,,0.00,WUHU216HW,2013-08-20 17:41:00,
2013-08-20 13:46:00,78.1,64.7,30.09,West,270,2.7,6.0,63,0.00,,,0.00,WUHU216HW,2013-08-20 17:46:00,
2013-08-20 13:51:00,78.3,64.4,30.09,West,270,1.1,4.7,62,0.00,,,0.00,WUHU216HW,2013-08-20 17:51:00,
2013-08-20 13:56:00,78.3,64.0,30.09,WNW,293,2.5,4.7,61,0.00,,,0.00,WUHU216HW,2013-08-20 17:56:00,
2013-08-20 14:02:00,78.3,63.5,30.09,West,270,3.4,4.3,60,0.00,,,0.00,WUHU216HW,2013-08-20 18:02:00,
2013-08-20 14:07:00,78.6,64.7,30.09,SW,225,4.0,4.7,62,0.00,,,0.00,WUHU216HW,2013-08-20 18:07:00,
2013-08-20 14:12:00,78.8,64.0,30.09,NW,315,4.7,4.7,60,0.00,,,0.00,WUHU216HW,2013-08-20 18:12:00,
2013-08-20 14:17:00,79.0,64.2,30.09,West,270,2.5,4.7,60,0.00,,,0.00,WUHU216HW,2013-08-20 18:17:00,
2013-08-20 14:22:00,79.0,64.2,30.09,West,270,1.1,4.5,60,0.00,,,0.00,WUHU216HW,2013-08-20 18:22:00,
2013-08-20 14:27:00,79.2,64.3,30.08,West,270,1.6,4.5,60,0.00,,,0.00,WUHU216HW,2013-08-20 18:27:00,
2013-08-20 14:32:00,79.5,64.6,30.08,WNW,293,2.0,4.7,60,0.00,,,0.00,WUHU216HW,2013-08-20 18:32:00,
2013-08-20 14:37:00,79.7,64.8,30.08,NNW,338,2.5,4.7,60,0.00,,,0.00,WUHU216HW,2013-08-20 18:37:00,
2013-08-20 14:42:00,79.7,63.3,30.08,West,270,5.6,6.0,57,0.00,,,0.00,WUHU216HW,2013-08-20 18:42:00,
2013-08-20 14:47:00,79.5,63.1,30.08,NW,315,3.1,6.0,57,0.00,,,0.00,WUHU216HW,2013-08-20 18:47:00,
2013-08-20 14:52:00,79.4,63.0,30.08,WNW,293,3.4,5.8,57,0.00,,,0.00,WUHU216HW,2013-08-20 18:52:00,
2013-08-20 14:57:00,79.4,63.6,30.08,West,270,3.4,6.3,58,0.00,,,0.00,WUHU216HW,2013-08-20 18:57:00,
2013-08-20 15:03:00,79.7,64.3,30.07,NW,315,1.1,6.3,59,0.00,,,0.00,WUHU216HW,2013-08-20 19:03:00,
2013-08-20 15:08:00,80.1,64.2,30.07,WSW,248,2.7,3.8,58,0.00,,,0.00,WUHU216HW,2013-08-20 19:08:00,
2013-08-20 15:13:00,80.1,63.7,30.07,SSW,203,1.8,6.0,57,0.00,,,0.00,WUHU216HW,2013-08-20 19:13:00,
2013-08-20 15:18:00,80.3,64.4,30.07,West,270,0.2,6.0,58,0.00,,,0.00,WUHU216HW,2013-08-20 19:18:00,
2013-08-20 15:23:00,80.4,64.0,30.07,SW,225,2.2,5.4,57,0.00,,,0.00,WUHU216HW,2013-08-20 19:23:00,
2013-08-20 15:28:00,80.6,64.2,30.07,NW,315,2.5,5.6,57,0.00,,,0.00,WUHU216HW,2013-08-20 19:28:00,
2013-08-20 15:33:00,80.8,64.9,30.07,East,90,5.4,5.6,58,0.00,,,0.00,WUHU216HW,2013-08-20 19:33:00,
2013-08-20 15:38:00,80.8,63.8,30.07,SW,225,2.5,5.6,56,0.00,,,0.00,WUHU216HW,2013-08-20 19:38:00,
2013-08-20 15:43:00,81.0,64.0,30.07,SW,225,2.5,4.9,56,0.00,,,0.00,WUHU216HW,2013-08-20 19:43:00,
2013-08-20 15:48:00,81.2,64.2,30.07,SW,225,2.7,5.4,56,0.00,,,0.00,WUHU216HW,2013-08-20 19:48:00,
2013-08-20 15:53:00,81.0,63.5,30.07,SSE,158,2.5,6.9,55,0.00,,,0.00,WUHU216HW,2013-08-20 19:53:00,
2013-08-20 15:59:00,81.2,64.2,30.07,West,270,2.7,6.9,56,0.00,,,0.00,WUHU216HW,2013-08-20 19:59:00,
2013-08-20 16:04:00,81.2,64.2,30.07,West,270,2.5,5.4,56,0.00,,,0.00,WUHU216HW,2013-08-20 20:04:00,
2013-08-20 16:09:00,81.3,64.3,30.07,WSW,248,2.5,5.4,56,0.00,,,0.00,WUHU216HW,2013-08-20 20:09:00,
2013-08-20 16:14:00,81.5,64.0,30.07,West,270,3.4,5.4,55,0.00,,,0.00,WUHU216HW,2013-08-20 20:14:00,
2013-08-20 16:19:00,81.5,65.0,30.07,West,270,4.7,5.8,57,0.00,,,0.00,WUHU216HW,2013-08-20 20:19:00,
2013-08-20 16:24:00,81.5,64.0,30.07,NW,315,5.4,6.5,55,0.00,,,0.00,WUHU216HW,2013-08-20 20:24:00,
2013-08-20 16:29:00,81.5,65.0,30.07,WNW,293,2.7,6.5,57,0.00,,,0.00,WUHU216HW,2013-08-20 20:29:00,
2013-08-20 16:34:00,81.7,65.2,30.07,WSW,248,5.1,6.0,57,0.00,,,0.00,WUHU216HW,2013-08-20 20:34:00,
2013-08-20 16:39:00,81.9,64.3,30.07,West,270,4.5,6.0,55,0.00,,,0.00,WUHU216HW,2013-08-20 20:39:00,
2013-08-20 16:44:00,81.9,64.9,30.06,WNW,293,2.2,6.0,56,0.00,,,0.00,WUHU216HW,2013-08-20 20:44:00,
2013-08-20 16:49:00,82.2,65.7,30.06,WSW,248,2.2,5.4,57,0.00,,,0.00,WUHU216HW,2013-08-20 20:49:00,
2013-08-20 16:54:00,82.2,64.6,30.06,West,270,3.4,5.4,55,0.00,,,0.00,WUHU216HW,2013-08-20 20:54:00,
2013-08-20 17:00:00,82.2,64.6,30.06,West,270,4.0,5.4,55,0.00,,,0.00,WUHU216HW,2013-08-20 21:00:00,
2013-08-20 17:05:00,82.2,65.2,30.07,West,270,2.5,6.3,56,0.00,,,0.00,WUHU216HW,2013-08-20 21:05:00,
2013-08-20 17:10:00,82.4,65.3,30.06,SW,225,4.7,6.3,56,0.00,,,0.00,WUHU216HW,2013-08-20 21:10:00,
2013-08-20 17:15:00,82.6,65.5,30.07,WSW,248,3.6,6.9,56,0.00,,,0.00,WUHU216HW,2013-08-20 21:15:00,
2013-08-20 17:20:00,82.6,65.0,30.06,WNW,293,2.5,7.2,55,0.00,,,0.00,WUHU216HW,2013-08-20 21:20:00,
2013-08-20 17:25:00,82.6,65.0,30.06,SW,225,1.6,7.2,55,0.00,,,0.00,WUHU216HW,2013-08-20 21:25:00,
2013-08-20 17:30:00,82.8,65.2,30.06,WNW,293,5.1,5.4,55,0.00,,,0.00,WUHU216HW,2013-08-20 21:30:00,
2013-08-20 17:35:00,82.8,65.2,30.06,WSW,248,2.5,5.6,55,0.00,,,0.00,WUHU216HW,2013-08-20 21:35:00,
2013-08-20 17:40:00,82.6,65.0,30.06,SW,225,1.1,6.9,55,0.00,,,0.00,WUHU216HW,2013-08-20 21:40:00,
2013-08-20 17:45:00,82.8,65.7,30.07,NW,315,3.1,6.9,56,0.00,,,0.00,WUHU216HW,2013-08-20 21:45:00,
2013-08-20 17:50:00,83.0,65.9,30.07,West,270,1.8,4.7,56,0.00,,,0.00,WUHU216HW,2013-08-20 21:50:00,
2013-08-20 17:55:00,83.3,65.7,30.07,West,270,1.6,4.7,55,0.00,,,0.00,WUHU216HW,2013-08-20 21:55:00,
2013-08-20 18:01:00,83.5,65.8,30.07,West,270,2.7,4.7,55,0.00,,,0.00,WUHU216HW,2013-08-20 22:01:00,
2013-08-20 18:06:00,83.7,66.6,30.07,West,270,2.2,4.0,56,0.00,,,0.00,WUHU216HW,2013-08-20 22:06:00,
2013-08-20 18:11:00,84.0,66.8,30.07,West,270,1.3,4.0,56,0.00,,,0.00,WUHU216HW,2013-08-20 22:11:00,
2013-08-20 18:16:00,84.4,66.7,30.07,West,270,1.8,4.0,55,0.00,,,0.00,WUHU216HW,2013-08-20 22:16:00,
2013-08-20 18:21:00,84.2,66.5,30.07,West,270,1.3,2.7,55,0.00,,,0.00,WUHU216HW,2013-08-20 22:21:00,
2013-08-20 18:26:00,84.6,66.9,30.06,South,180,2.2,3.4,55,0.00,,,0.00,WUHU216HW,2013-08-20 22:26:00,
2013-08-20 18:31:00,84.9,66.6,30.06,WSW,248,1.1,5.1,54,0.00,,,0.00,WUHU216HW,2013-08-20 22:31:00,
2013-08-20 18:36:00,85.3,67.0,30.06,SSW,203,1.1,5.1,54,0.00,,,0.00,WUHU216HW,2013-08-20 22:36:00,
2013-08-20 18:41:00,86.2,67.8,30.07,SSE,158,1.1,2.7,54,0.00,,,0.00,WUHU216HW,2013-08-20 22:41:00,
2013-08-20 18:46:00,86.9,67.9,30.07,ESE,113,0.9,2.7,53,0.00,,,0.00,WUHU216HW,2013-08-20 22:46:00,
2013-08-20 18:51:00,87.5,67.9,30.06,SSW,203,1.1,2.7,52,0.00,,,0.00,WUHU216HW,2013-08-20 22:51:00,
2013-08-20 18:57:00,87.1,67.5,30.07,WSW,248,0.0,1.6,52,0.00,,,0.00,WUHU216HW,2013-08-20 22:57:00,
2013-08-20 19:02:00,86.2,67.3,30.07,WSW,248,0.0,1.1,53,0.00,,,0.00,WUHU216HW,2013-08-20 23:02:00,
2013-08-20 19:07:00,84.9,66.6,30.07,SW,225,0.0,1.3,54,0.00,,,0.00,WUHU216HW,2013-08-20 23:07:00,
2013-08-20 19:12:00,84.0,66.8,30.07,ESE,113,0.2,1.3,56,0.00,,,0.00,WUHU216HW,2013-08-20 23:12:00,
2013-08-20 19:17:00,83.1,66.5,30.07,WSW,248,0.4,1.1,57,0.00,,,0.00,WUHU216HW,2013-08-20 23:17:00,
2013-08-20 19:22:00,82.6,66.1,30.07,SSE,158,0.0,1.1,57,0.00,,,0.00,WUHU216HW,2013-08-20 23:22:00,
2013-08-20 19:27:00,82.1,66.1,30.07,SW,225,0.4,0.4,58,0.00,,,0.00,WUHU216HW,2013-08-20 23:27:00,
2013-08-20 19:32:00,81.3,65.3,30.07,WSW,248,0.4,1.1,58,0.00,,,0.00,WUHU216HW,2013-08-20 23:32:00,
2013-08-20 19:37:00,80.8,65.4,30.07,SW,225,0.0,1.1,59,0.00,,,0.00,WUHU216HW,2013-08-20 23:37:00,
2013-08-20 19:42:00,80.3,64.9,30.07,SSW,203,0.4,0.9,59,0.00,,,0.00,WUHU216HW,2013-08-20 23:42:00,
2013-08-20 19:47:00,79.7,64.8,30.07,SE,135,0.0,1.3,60,0.00,,,0.00,WUHU216HW,2013-08-20 23:47:00,
2013-08-20 19:52:00,79.2,64.8,30.07,SSE,158,0.7,1.3,61,0.00,,,0.00,WUHU216HW,2013-08-20 23:52:00,
2013-08-20 19:57:00,78.6,64.7,30.07,WSW,248,0.4,0.9,62,0.00,,,0.00,WUHU216HW,2013-08-20 23:57:00,
2013-08-20 20:02:00,78.3,64.4,30.07,SW,225,0.4,1.1,62,0.00,,,0.00,WUHU216HW,2013-08-21 00:02:00,
2013-08-20 20:08:00,77.9,64.5,30.07,West,270,0.0,1.1,63,0.00,,,0.00,WUHU216HW,2013-08-21 00:08:00,
2013-08-20 20:13:00,77.4,64.5,30.08,West,270,0.0,1.1,64,0.00,,,0.00,WUHU216HW,2013-08-21 00:13:00,
2013-08-20 20:18:00,77.0,64.1,30.07,SW,225,1.1,2.2,64,0.00,,,0.00,WUHU216HW,2013-08-21 00:18:00,
2013-08-20 20:23:00,76.7,63.8,30.08,SW,225,0.0,2.2,64,0.00,,,0.00,WUHU216HW,2013-08-21 00:23:00,
2013-08-20 20:28:00,76.5,64.1,30.08,WSW,248,0.4,0.9,65,0.00,,,0.00,WUHU216HW,2013-08-21 00:28:00,
2013-08-20 20:33:00,76.1,64.1,30.08,WSW,248,0.0,0.7,66,0.00,,,0.00,WUHU216HW,2013-08-21 00:33:00,
2013-08-20 20:38:00,75.8,63.9,30.08,NW,315,0.2,1.1,66,0.00,,,0.00,WUHU216HW,2013-08-21 00:38:00,
2013-08-20 20:43:00,75.6,64.1,30.09,NW,315,0.0,1.1,67,0.00,,,0.00,WUHU216HW,2013-08-21 00:43:00,
2013-08-20 20:48:00,75.2,64.1,30.09,NNW,338,0.4,0.9,68,0.00,,,0.00,WUHU216HW,2013-08-21 00:48:00,
2013-08-20 20:53:00,75.0,63.9,30.09,NW,315,0.4,0.9,68,0.00,,,0.00,WUHU216HW,2013-08-21 00:53:00,
2013-08-20 20:58:00,74.7,64.1,30.09,NW,315,0.2,0.4,69,0.00,,,0.00,WUHU216HW,2013-08-21 00:58:00,
2013-08-20 21:03:00,74.5,63.9,30.09,NW,315,0.2,0.4,69,0.00,,,0.00,WUHU216HW,2013-08-21 01:03:00,
2013-08-20 21:08:00,74.3,64.1,30.09,NNW,338,0.0,0.4,70,0.00,,,0.00,WUHU216HW,2013-08-21 01:08:00,
2013-08-20 21:13:00,74.0,63.8,30.10,NNW,338,0.0,0.4,70,0.00,,,0.00,WUHU216HW,2013-08-21 01:13:00,
2013-08-20 21:18:00,74.0,64.2,30.10,NNW,338,0.0,0.7,71,0.00,,,0.00,WUHU216HW,2013-08-21 01:18:00,
2013-08-20 21:19:00,73.8,64.0,30.10,NNW,338,0.0,0.7,71,0.00,,,0.00,WUHU216HW,2013-08-21 01:19:00,
2013-08-20 22:00:00,72.2,63.2,30.10,SE,135,0.0,0.0,73,0.00,,,0.00,WUHU216HW,2013-08-21 02:00:00,
2013-08-20 22:05:00,71.8,63.2,30.10,SE,135,0.4,0.7,74,0.00,,,0.00,WUHU216HW,2013-08-21 02:05:00,
2013-08-20 22:10:00,71.8,63.2,30.11,SE,135,0.0,0.7,74,0.00,,,0.00,WUHU216HW,2013-08-21 02:10:00,
2013-08-20 22:15:00,71.4,62.8,30.11,SE,135,0.0,0.4,74,0.00,,,0.00,WUHU216HW,2013-08-21 02:15:00,
2013-08-20 22:20:00,71.3,63.1,30.10,SE,135,0.0,0.0,75,0.00,,,0.00,WUHU216HW,2013-08-21 02:20:00,
2013-08-20 22:25:00,71.1,62.9,30.10,SE,135,0.0,0.0,75,0.00,,,0.00,WUHU216HW,2013-08-21 02:25:00,
2013-08-20 22:30:00,70.9,62.7,30.11,SE,135,0.0,0.0,75,0.00,,,0.00,WUHU216HW,2013-08-21 02:30:00,
2013-08-20 22:35:00,70.7,62.5,30.11,SE,135,0.0,0.0,75,0.00,,,0.00,WUHU216HW,2013-08-21 02:35:00,
2013-08-20 22:40:00,70.5,62.7,30.11,SE,135,0.4,0.7,76,0.00,,,0.00,WUHU216HW,2013-08-21 02:40:00,
2013-08-20 22:45:00,70.4,62.6,30.11,SSE,158,0.7,1.1,76,0.00,,,0.00,WUHU216HW,2013-08-21 02:45:00,
2013-08-20 22:50:00,70.4,62.6,30.11,SE,135,0.4,1.1,76,0.00,,,0.00,WUHU216HW,2013-08-21 02:50:00,
2013-08-20 22:55:00,70.0,61.8,30.11,SE,135,0.0,0.7,75,0.00,,,0.00,WUHU216HW,2013-08-21 02:55:00,
2013-08-20 23:01:00,69.8,61.7,30.11,SE,135,0.0,0.4,75,0.00,,,0.00,WUHU216HW,2013-08-21 03:01:00,
2013-08-20 23:06:00,69.6,61.8,30.11,SE,135,0.0,0.4,76,0.00,,,0.00,WUHU216HW,2013-08-21 03:06:00,
2013-08-20 23:11:00,69.6,61.8,30.11,SE,135,0.0,0.0,76,0.00,,,0.00,WUHU216HW,2013-08-21 03:11:00,
2013-08-20 23:16:00,69.3,61.5,30.11,SE,135,0.0,0.4,76,0.00,,,0.00,WUHU216HW,2013-08-21 03:16:00,
2013-08-20 23:21:00,69.3,61.5,30.11,SE,135,0.0,0.4,76,0.00,,,0.00,WUHU216HW,2013-08-21 03:21:00,
2013-08-20 23:26:00,68.9,61.1,30.11,SE,135,0.0,0.0,76,0.00,,,0.00,WUHU216HW,2013-08-21 03:26:00,
2013-08-20 23:31:00,68.9,61.5,30.11,SE,135,0.0,0.0,77,0.00,,,0.00,WUHU216HW,2013-08-21 03:31:00,
2013-08-20 23:36:00,68.6,61.2,30.11,SE,135,0.0,0.0,77,0.00,,,0.00,WUHU216HW,2013-08-21 03:36:00,
2013-08-20 23:41:00,68.6,61.2,30.11,SE,135,0.0,0.0,77,0.00,,,0.00,WUHU216HW,2013-08-21 03:41:00,
2013-08-20 23:46:00,68.4,61.0,30.12,SE,135,0.7,0.7,77,0.00,,,0.00,WUHU216HW,2013-08-21 03:46:00,
2013-08-20 23:51:00,68.2,60.8,30.11,SE,135,0.4,0.9,77,0.00,,,0.00,WUHU216HW,2013-08-21 03:51:00,
2013-08-20 23:57:00,68.2,60.8,30.11,SE,135,0.0,0.9,77,0.00,,,0.00,WUHU216HW,2013-08-21 03:57:00,